TimePST,TemperatureF,Dew PointF,Humidity,Sea Level PressureIn,VisibilityMPH,Wind Direction,Wind SpeedMPH,Gust SpeedMPH,PrecipitationIn,Events,Conditions,WindDirDegrees,DateUTC
12:53 AM,51.1,44.1,77,30.15,9.0,Calm,Calm,-,N/A,,Clear,0,2012-11-04 07:53:00
1:53 AM,50.0,44.1,80,30.15,9.0,Calm,Calm,-,N/A,,Clear,0,2012-11-04 08:53:00
1:53 AM,48.9,43.0,80,30.16,8.0,Calm,Calm,-,N/A,,Clear,0,2012-11-04 09:53:00
2:53 AM,50.0,45.0,83,30.16,8.0,Calm,Calm,-,N/A,,Clear,0,2012-11-04 10:53:00
3:53 AM,48.9,45.0,86,30.16,7.0,Calm,Calm,-,N/A,,Clear,0,2012-11-04 11:53:00
4:53 AM,51.1,46.0,83,30.17,8.0,East,3.5,-,N/A,,Clear,80,2012-11-04 12:53:00
5:53 AM,48.0,43.0,83,30.17,8.0,East,3.5,-,N/A,,Clear,100,2012-11-04 13:53:00
6:53 AM,48.0,45.0,89,30.20,6.0,Calm,Calm,-,N/A,,Clear,0,2012-11-04 14:53:00
7:53 AM,55.0,48.0,77,30.22,7.0,ESE,3.5,-,N/A,,Clear,110,2012-11-04 15:53:00
8:53 AM,60.1,51.1,72,30.22,4.0,ESE,5.8,-,N/A,,Haze,120,2012-11-04 16:53:00
9:53 AM,64.9,52.0,63,30.22,6.0,Calm,Calm,-,N/A,,Haze,0,2012-11-04 17:53:00
10:53 AM,70.0,51.1,51,30.21,9.0,Calm,Calm,-,N/A,,Clear,0,2012-11-04 18:53:00
11:53 AM,72.0,50.0,46,30.18,10.0,Calm,Calm,-,N/A,,Clear,0,2012-11-04 19:53:00
12:53 PM,75.0,51.1,43,30.16,8.0,North,4.6,-,N/A,,Clear,360,2012-11-04 20:53:00
1:53 PM,75.9,50.0,40,30.14,10.0,Variable,4.6,-,N/A,,Clear,0,2012-11-04 21:53:00
2:53 PM,78.1,50.0,37,30.13,9.0,Calm,Calm,-,N/A,,Clear,0,2012-11-04 22:53:00
3:53 PM,77.0,51.1,40,30.13,10.0,NW,3.5,-,N/A,,Clear,310,2012-11-04 23:53:00
4:53 PM,75.0,51.1,43,30.12,10.0,NW,3.5,-,N/A,,Clear,310,2012-11-05 00:53:00
5:53 PM,69.1,51.1,53,30.14,10.0,NW,3.5,-,N/A,,Clear,320,2012-11-05 01:53:00
6:53 PM,68.0,52.0,56,30.15,10.0,North,-9999.0,-,N/A,,Clear,0,2012-11-05 02:53:00
7:53 PM,61.0,51.1,70,30.15,9.0,Calm,Calm,-,N/A,,Clear,0,2012-11-05 03:53:00
8:53 PM,59.0,50.0,72,30.15,9.0,Calm,Calm,-,N/A,,Clear,0,2012-11-05 04:53:00
9:53 PM,59.0,48.9,69,30.16,8.0,Calm,Calm,-,N/A,,Clear,0,2012-11-05 05:53:00
10:53 PM,57.0,48.9,74,30.16,8.0,East,3.5,-,N/A,,Clear,80,2012-11-05 06:53:00